map of GEA home
GEA - Airport
Location
City:  Nouméa, New Caledonia
Name:Magenta
ICAO:NWWM
IATA:GEA

Details
Type:Airport (Aerodrome, Airfield)
Latitude:22°15'30"S (-22.258332)
Longitude:166°28'22"E (166.472778)
Elevation:10 ft (3 m)
Variation:12.47°E (WMM2015 magnetic declination)
0.03° annual change
Runways:1
Longest:4101 × 98 ft (1250 × 30 m), paved

Time
Time Zone:UTC+11
Local Time:

Weather
TAF:NWWM 221700Z 2218/2318 09012KT 9999 FEW040

Related Locations
Nearby:
Farthest:FGD: 12383 mi / 19928 km
Fderik, MR

Find:

   beyond  
but within

Other Information
Maps:
NOTAMs:
Links:
Sources:

  
  • flag of New Caledonia
  

Sectional Chart

Flight Planning
at skyvector.com

Satellite Image

Google Maps Satellite view

 

Copyright © 2004-2018 Karl L. Swartz. All rights reserved.
The Great Circle Mapper name and logo are trademarks of the Great Circle Mapper.
All other trademarks mentioned herein belong to their respective owners.
Please see credits for attibutions and further copyright information.

  Follow gcmap on Facebook Follow gcmap on Twitter Follow gcmap on Google+ GCmap on LinkedIn

hCard Microformat

Geo Microformat